Weather History for KTUS - July, 2013

Change the Weather History Date:

Thursday, July 18, 2013

  Actual Average Record
Temperature  
Mean Temperature 89 °F 87 °F  
Max Temperature 98 °F 99 °F 109 °F (1989)
Min Temperature 80 °F 75 °F 60 °F (1913)
Degree Days  
Heating Degree Days 0 0  
Month to date heating degree days 0 0  
Since 1 June heating degree days 0 0  
Since 1 July heating degree days 0 0  
Cooling Degree Days 24 22  
Month to date cooling degree days 440 408  
Year to date cooling degree days 1892 1504  
Since 1 June cooling degree days 1181 1002  
Growing Degree Days 39 (Base 50)    
Moisture  
Dew Point 55 °F    
Average Humidity 33    
Maximum Humidity 45    
Minimum Humidity 21    
Precipitation  
Precipitation T in 0.09 in 0.97 in (1919)
Month to date precipitation 1.76 1.07  
Year to date precipitation 3.53 4.34  
Snow  
Snow 0.00 in - - ()
Month to date snowfall 0.0  
Snow Depth 0.00 in    
Sea Level Pressure  
Sea Level Pressure 29.84 in    
Wind  
Wind Speed 12 mph (ESE)    
Max Wind Speed 25 mph    
Max Gust Speed 29 mph    
Visibility 10 miles    
Events      
T = Trace of Precipitation, MM = Missing Value Source: NWS Daily Summary

Daily Weather History Graph

Daily Weather History Graph

Search for Another Location

Airport or City:

Trip Planner

Search our weather history database for the weather conditions in past years. The results will help you decide how hot, cold, wet, or windy it might be!

Date:

Astronomy

Jul. 18, 2013 Rise Set
Actual Time 5:30 AM MST 7:29 PM MST
Civil Twilight 5:02 AM MST 7:57 PM MST
Nautical Twilight 4:29 AM MST 8:30 PM MST
Astronomical Twilight 3:53 AM MST 9:06 PM MST
Moon 3:32 PM MST (7/18) 1:20 AM MST (7/18)
Length of Visible Light 14h 54m
Length of Day
13h 59m
Waxing Gibbous, 78% of the Moon is Illuminated
Jul 18
Waxing Gibbous
Jul 22
Full
Jul 29
Last Quarter
Aug 6
New
Aug 14
First Quarter

Hourly Weather History & Observations

Time (MST) Temp. Heat Index Dew Point Humidity Pressure Visibility Wind Dir Wind Speed Gust Speed Precip Events Conditions
12:53 AM 84.9 °F 83.7 °F 55.9 °F 37% 29.89 in 10.0 mi SE 15.0 mph - N/A   Scattered Clouds
1:53 AM 84.0 °F 83.0 °F 55.9 °F 38% 29.87 in 10.0 mi ESE 9.2 mph - N/A   Clear
2:53 AM 82.9 °F 82.1 °F 55.9 °F 39% 29.85 in 10.0 mi ESE 9.2 mph - N/A   Clear
3:53 AM 82.0 °F 81.6 °F 55.9 °F 41% 29.86 in 10.0 mi East 11.5 mph - N/A   Clear
4:53 AM 81.0 °F 80.8 °F 55.9 °F 42% 29.87 in 10.0 mi East 15.0 mph 20.7 mph N/A   Clear
5:53 AM 80.1 °F 80.4 °F 57.0 °F 45% 29.88 in 10.0 mi East 12.7 mph - N/A   Clear
6:53 AM 81.0 °F 81.0 °F 57.0 °F 44% 29.90 in 10.0 mi SE 18.4 mph - N/A   Clear
7:53 AM 82.9 °F 82.4 °F 57.0 °F 41% 29.92 in 10.0 mi ESE 19.6 mph - N/A   Partly Cloudy
8:53 AM 84.9 °F 83.7 °F 55.9 °F 37% 29.91 in 10.0 mi ESE 19.6 mph - N/A   Clear
9:53 AM 88.0 °F 86.7 °F 57.0 °F 35% 29.89 in 10.0 mi ESE 13.8 mph 24.2 mph N/A   Clear
10:53 AM 91.0 °F 88.9 °F 55.0 °F 29% 29.87 in 10.0 mi ESE 8.1 mph - N/A   Clear
11:53 AM 91.9 °F 90.0 °F 55.0 °F 29% 29.85 in 10.0 mi NE 5.8 mph - N/A   Clear
12:53 PM 93.0 °F 90.8 °F 54.0 °F 27% 29.84 in 10.0 mi ESE 9.2 mph 16.1 mph N/A   Partly Cloudy
1:53 PM 93.9 °F 91.4 °F 53.1 °F 25% 29.81 in 10.0 mi East 10.4 mph - N/A   Clear
2:53 PM 93.9 °F 91.7 °F 54.0 °F 26% 29.79 in 10.0 mi East 5.8 mph 19.6 mph N/A   Clear
3:53 PM 96.1 °F - 50.0 °F 21% 29.75 in 10.0 mi Calm Calm - N/A   Partly Cloudy
4:53 PM 96.1 °F - 51.1 °F 22% 29.74 in 10.0 mi NNE 6.9 mph - N/A   Partly Cloudy
5:53 PM 95.0 °F 92.5 °F 53.1 °F 24% 29.75 in 10.0 mi SE 12.7 mph - N/A   Scattered Clouds
6:53 PM 91.0 °F 89.2 °F 55.9 °F 30% 29.78 in 10.0 mi East 13.8 mph - N/A   Clear
7:53 PM 90.0 °F 87.9 °F 55.0 °F 30% 29.79 in 10.0 mi ESE 11.5 mph - N/A   Clear
8:53 PM 88.0 °F 86.5 °F 55.9 °F 34% 29.82 in 10.0 mi ESE 9.2 mph - N/A   Clear
9:53 PM 87.1 °F 85.9 °F 57.0 °F 36% 29.83 in 10.0 mi SE 15.0 mph - N/A   Clear
10:53 PM 86.0 °F 84.5 °F 55.0 °F 35% 29.85 in 10.0 mi ESE 13.8 mph - N/A   Partly Cloudy
11:53 PM 84.0 °F 83.5 °F 57.9 °F 41% 29.85 in 10.0 mi ESE 11.5 mph - 0.00 in   Partly Cloudy